Regional Weather Roundup
Issued by NWS Charleston, SC

Current Version | Previous Version | Graphics & Text | Print | Product List | Glossary On
Versions: 1 2 3 4 5 6 7 8 9 10 11 12 13 14 15 16 17 18 19 20 21 22 23 24 25 26 27 28 29 30 31 32 33 34 35 36 37 38 39 40 41 42 43 44 45 46 47 48 49 50
000 ASUS42 KCHS 221827 RWRCHS REGIONAL WEATHER ROUNDUP NATIONAL WEATHER SERVICE CHARLESTON SC 200 PM EDT TUE AUG 22 2017 NOTE: "FAIR" INDICATES FEW OR NO CLOUDS BELOW 12,000 FEET WITH NO SIGNIFICANT WEATHER AND/OR OBSTRUCTIONS TO VISIBILITY. NOT ALL STATIONS ARE QUALITY CONTROLLED. USE DATA WITH CAUTION... ESPECIALLY DEWPOINT OBSERVATIONS. SCZ027-030-031-034>040-042>050-221900- ...SOUTHEAST SOUTH CAROLINA... CITY SKY/WX TMP DP RH WIND PRES REMARKS N CHARLESTON PTSUNNY 89 75 63 S9 30.08F HX 99 6HR MIN TEMP: 79; 6HR MAX TEMP: 89; WATERFRONT PRK N/A 86 76 72 S8 29.94F HX 96 JOHNS ISLAND MOCLDY 88 75 66 S10 30.09S HX 97 PINOPOLIS N/A 88 75 66 SW6 30.02F HX 97 MONCKS CORNER FAIR 88 68 51 S5 30.07F HX 91 SUMMERVILLE LGT RAIN 79 77 94 CALM 30.10S BEAUFORT MCAS PTSUNNY 87 77 72 NW6 30.09F HX 99 6HR MIN TEMP: 77; 6HR MAX TEMP: 88; BEAUFORT ARPT MOCLDY 86 73 66 W6 30.08F HX 93 HILTON HEAD IS PTSUNNY 82 77 83 SE5 30.11F HX 91 WALTERBORO CLOUDY 82 75 78 W3 30.09F ALLENDALE NOT AVBL ...SOUTHERN MIDLANDS AND PEE DEE... CITY SKY/WX TMP DP RH WIND PRES REMARKS GEORGETOWN FAIR 77 75 94 CALM 30.09F KINGSTREE FAIR 82 75 78 CALM 30.07F ORANGEBURG CLOUDY 83 75 77 S10 30.09F HX 90 6HR MIN TEMP: 75; 6HR MAX TEMP: 89; 6HR PCP: TRACE; BARNWELL FAIR 90 75 62 VRB3 30.08F HX 100 AIKEN FAIR 90 72 55 S6 30.11F HX 96 MANNING LGT RAIN 77 66 69 CALM 30.09F COLUMBIA PTSUNNY 90 71 53 S3 30.07F HX 96 6HR MIN TEMP: 76; 6HR MAX TEMP: 93; SUMTER MOSUNNY 91 69 49 S6 30.05F HX 95 6HR MIN TEMP: 76; 6HR MAX TEMP: 91; FLORENCE CLOUDY 90 73 57 S12 30.07F HX 98 6HR MIN TEMP: 76; 6HR MAX TEMP: 90; MYRTLE BEACH PTSUNNY 84 77 79 S6 30.11S HX 94 N MYRTLE BEACH PTSUNNY 85 76 74 S8 30.09F HX 94 6HR MIN TEMP: 78; 6HR MAX TEMP: 86; 6HR PCP: TRACE; $$ GAZ063-065-086>088-099>101-113>116-118-119-134>141-150-221900- ...SOUTHEAST GEORGIA... CITY SKY/WX TMP DP RH WIND PRES REMARKS SAVANNAH ARPT PTSUNNY 87 75 67 N8 30.09F HX 96 6HR MIN TEMP: 77; 6HR MAX TEMP: 90; HUNTER AAF CLOUDY 85 76 76 S8 30.07F HX 94 6HR MIN TEMP: 78; 6HR MAX TEMP: 88; 6HR PCP: TRACE; FORT STEWART PTSUNNY 82 76 82 E6 30.08F 6HR MIN TEMP: 74; 6HR MAX TEMP: 88; 6HR PCP: 0.09; STATESBORO MOSUNNY 91 66 43 CALM 30.09F HX 94 SYLVANIA MOCLDY 87 77 70 CALM 30.09F HX 99 CLAXTON FAIR 91 73 55 NW5 30.08F HX 99 ...CSRA...CENTRAL AND FAR SOUTHEAST GEORGIA... CITY SKY/WX TMP DP RH WIND PRES REMARKS THOMSON PTSUNNY 89 72 58 CALM 30.13F HX 95 AUGUSTA-BUSH MOSUNNY 91 75 59 VRB3 30.08F HX 101 6HR MIN TEMP: 74; 6HR MAX TEMP: 93; AUGUSTA-DANIEL PTSUNNY 88 69 53 S5 30.10F HX 92 SWAINSBORO FAIR 90 72 55 N5 30.09F HX 96 VIDALIA SUNNY 91 72 52 CALM 30.09F HX 98 EASTMAN FAIR 91 58 32 CALM 30.10F HAZLEHURST FAIR 91 60 35 CALM 30.08F HX 90 ALMA PTSUNNY 91 73 55 VRB3 30.09F HX 99 6HR MIN TEMP: 75; 6HR MAX TEMP: 91; 6HR PCP: TRACE; WAYCROSS PTSUNNY 91 68 47 W7 30.08F HX 95 JESUP FAIR 90 73 58 E3 30.09F HX 98 BAXLEY CLOUDY 88 73 62 E7 30.09F HX 96 BRUNSWICK CLOUDY 86 72 62 SE6 30.10S HX 92 SAINT SIMONS MOSUNNY 88 77 69 SE8 30.10F HX 100 6HR MIN TEMP: 77; 6HR MAX TEMP: 88; $$ SCZ027-028-034-036>038-045-046-048>050-GAZ119-141-221900- ...LAKE AND SUPPLEMENTAL COASTAL OBSERVATIONS... STATION/POSITION TIME TEMP WIND PRES WAVE SWELL AIR SEA DIR/SP/G HT/PER HT/PER/DIR (UTC) (F) (DEG/KT/KT) (MB) (FT/S) (FT/S/D) WINYAH BAY 1745 85 150/ 7 1019.0S LAKE MURRAY 1730 87 180/ 5/ 6 1017.6F ACE BASIN NERRS 1745 87 250/ 3 1019.0F FORT PULASKI 1800 84 87 180/ 5/ 9 1019.5 SAPELO ISLAND 1800 89 CALM 1019.0 $$ ANZ835-935-AMZ111-154-330-350-352-354-370-450-454-472-221900- ...C-MAN AND BUOY OBSERVATIONS... STATION/POSITION TIME TEMP WIND PRES WAVE SWELL AIR SEA DIR/SP/G HT/PER HT/PER/DIR (UTC) (F) (DEG/KT/KT) (MB) (FT/S) (FT/S/D) BUOY 41004 1810 84 85 220/ 6/ 8 1018.8 BUOY 41008 1750 83 86 120/ 4/ 6 1019.3F 3/10 3/120/10 FOLLY BEACH CMAN 1800 84 210/ 11/ 12 1019.8F CAPERS NEARSHORE 1808 83 87 230/ 10/ 14 1019.0F FRIPP NEARSHORE 1808 82 180/ 10/ 14 1018.9F STATION/POSITION TIME TEMP WIND PRES WAVE SWELL AIR SEA DIR/SP/G HT/PER HT/PER/DIR (UTC) (F) (DEG/KT/KT) (MB) (FT/S) (FT/S/D) 5E ST. MARYS GA 1800 88 N/A 3/10 2/110/12 FRYING PAN BUOY 1810 83 85 200/ 8/ 10 1018.9 BUOY 41025 1750 83 87 190/ 12/ 14 1018.8F 3/10 3/150/10 CAPE LOOKOUT NC 1800 84 200/ 8/ 11 1018.3F BUOY 41002 1750 83 85 140/ 8/ 10 1019.8F 5/ 9 5/100/ 9 BUOY 41010 1810 84 85 120/ 10/ 12 1018.3 ST AUGUSTINE FL 1800 84 84 90/ 5/ 6 1019.8F $$

USA.gov is the U.S. government's official web portal to all federal, state and local government web resources and services.